Tracking 19827 objects as of 22-Aug-2019
HD Live streaming from Space Station
objects crossing your sky now

WESTFORD NEEDLES

Track WESTFORD NEEDLES now!
10-day predictions
WESTFORD NEEDLES is classified as:


NORAD ID: 19109
Int'l Code: 1963-014EJ
Perigee: 2,363.1 km
Apogee: 4,845.2 km
Inclination: 86.8 °
Period: 165.2 minutes
Semi major axis: 9975 km
RCS: 0.124 m2 (medium)
Launch date: May 9, 1963
Source: United States (US)
Launch site: AIR FORCE WESTERN TEST RANGE (AFWTR)
aabbcc
Your satellite tracking list
Your tracking list is empty




NASA's NSSDC Master Catalog

Two Line Element Set (TLE):
1 19109U 63014EJ  19233.23948241 -.00003740  00000-0 -75859+0 0  9994
2 19109  86.8316 326.5550 1244115  39.7991 328.7766  8.71414758863063
Source of the keplerian elements: AFSPC